Starlink 32900

operational
NORAD ID: 63093 Int'l Des: 2025-037 Owner: SPXS Country: US Constellation: starlink
LEOCIRCULAR

Starlink 32900について

説明を読み込み中...

リアルタイム位置

3D地球を読み込み中...

次回通過

高度履歴

Altitude vs Time

uPlot chart will show altitude changes over time

軌道要素

1 63093U 25037S 25351.31200850 .00004315 00000-0 36920-3 0 9999
2 63093 70.0004 202.1162 0002710 268.8807 91.2042 14.98333165 46121
Epoch: Dec 17, 2025 • Age: 7 hours

現在のステータス

高度 588.3 km
速度 7.57 km/s
衛星直下点 -47.43°S, 94.15°E
打ち上げ日 Feb 23, 2025
運用期間 0.8 years
タイプ internet

技術仕様

分類 Payload
質量 730.00 kg
乾燥質量 700.00 kg
総質量 730.00 kg
長さ 0.30 m
直径 4.10 m
スパン 29.00 m
形状 Box + pan
製造者 SPXS
バスタイプ Starlink V2M
フェーズステータス In Orbit
所有者/国 SPXS/US

大規模コンステレーション

Loading constellations...